When you browse on this site, cookies collect data to enhance your experience and personalize the content and advertising you see.
Visit our Privacy Policy to learn more. By continuing to use the site, you agree to this use of cookies and data.
  • In Schweiz
  • Länderverzeichnis
  • Für 7 Tage
  • Wassertemperatur
  • Satellitenkarten
  • Wetterkarte
  • Widgets
  • user-avatar
    Anmelden

    Stündliche Wetter Tomakivs'ke

    Heute, 21 Juli, Sonntag

    Zeit Temperatur Niederschläge Wind Luftdruck Luftfeuchtigkeit
    00:00 +24°C° 0 mm 1 m/S 755 mmHg 48%
    01:00 +24°C° 0 mm 1 m/S 755 mmHg 49%
    02:00 +24°C° 0 mm 1 m/S 755 mmHg 50%
    03:00 +24°C° 0 mm 1 m/S 755 mmHg 52%
    04:00 +23°C° 0 mm 1 m/S 755 mmHg 54%
    05:00 +23°C° 0 mm 1 m/S 755 mmHg 55%
    06:00 +24°C° 0 mm 1 m/S 755 mmHg 54%
    07:00 +24°C° 0 mm 1 m/S 755 mmHg 53%
    08:00 +25°C° 0 mm 1 m/S 755 mmHg 52%
    09:00 +27°C° 0 mm 1 m/S 755 mmHg 47%
    10:00 +28°C° 0 mm 1 m/S 755 mmHg 43%
    11:00 +29°C° 0 mm 1 m/S 755 mmHg 38%
    12:00 +30°C° 0 mm 1 m/S 754 mmHg 36%
    13:00 +30°C° 0 mm 1 m/S 754 mmHg 35%
    14:00 +31°C° 0 mm 1 m/S 754 mmHg 33%
    15:00 +30°C° 0 mm 1 m/S 754 mmHg 34%
    16:00 +30°C° 0 mm 2 m/S 754 mmHg 35%
    17:00 +30°C° 0 mm 2 m/S 754 mmHg 36%
    18:00 +28°C° 0 mm 1 m/S 754 mmHg 41%
    19:00 +27°C° 0 mm 1 m/S 754 mmHg 46%
    20:00 +25°C° 0 mm 1 m/S 753 mmHg 50%
    21:00 +25°C° 0 mm 1 m/S 754 mmHg 52%
    22:00 +24°C° 0 mm 1 m/S 754 mmHg 53%
    23:00 +23°C° 0 mm 1 m/S 754 mmHg 55%

    Morgen, 22 Juli, Montag

    Zeit Temperatur Niederschläge Wind Luftdruck Luftfeuchtigkeit
    00:00 +23°C° 0 mm 1 m/S 754 mmHg 56%
    01:00 +22°C° 0 mm 1 m/S 754 mmHg 57%
    02:00 +22°C° 0 mm 1 m/S 754 mmHg 58%
    03:00 +22°C° 0 mm 1 m/S 754 mmHg 59%
    04:00 +22°C° 0 mm 1 m/S 754 mmHg 60%
    05:00 +22°C° 0 mm 1 m/S 754 mmHg 61%
    06:00 +24°C° 0 mm 1 m/S 754 mmHg 55%
    07:00 +26°C° 0 mm 1 m/S 754 mmHg 49%
    08:00 +28°C° 0 mm 2 m/S 754 mmHg 43%
    09:00 +29°C° 0 mm 2 m/S 754 mmHg 39%
    10:00 +30°C° 0 mm 2 m/S 754 mmHg 36%
    11:00 +32°C° 0 mm 2 m/S 753 mmHg 33%
    12:00 +33°C° 0 mm 3 m/S 753 mmHg 33%
    13:00 +33°C° 0 mm 3 m/S 753 mmHg 32%
    14:00 +34°C° 0 mm 3 m/S 752 mmHg 32%
    15:00 +34°C° 0 mm 3 m/S 752 mmHg 34%
    16:00 +33°C° 0 mm 3 m/S 752 mmHg 35%
    17:00 +33°C° 0 mm 3 m/S 752 mmHg 37%
    18:00 +30°C° 0 mm 3 m/S 752 mmHg 39%
    19:00 +29°C° 0 mm 3 m/S 751 mmHg 42%
    20:00 +27°C° 0 mm 3 m/S 751 mmHg 44%
    21:00 +27°C° 0 mm 3 m/S 751 mmHg 46%
    22:00 +27°C° 0 mm 3 m/S 751 mmHg 48%
    23:00 +26°C° 0 mm 3 m/S 751 mmHg 51%

    übermorgen, 23 Juli, Dienstag

    Zeit Temperatur Niederschläge Wind Luftdruck Luftfeuchtigkeit
    00:00 +25°C° 0.2 mm 3 m/S 751 mmHg 60%
    01:00 +24°C° 0.2 mm 3 m/S 751 mmHg 69%
    02:00 +21°C° 0.2 mm 3 m/S 750 mmHg 79%
    03:00 +21°C° 0.1 mm 3 m/S 750 mmHg 81%
    04:00 +21°C° 0.1 mm 3 m/S 750 mmHg 84%
    05:00 +21°C° 0.1 mm 3 m/S 750 mmHg 86%
    06:00 +21°C° 0.1 mm 3 m/S 750 mmHg 83%
    07:00 +22°C° 0.1 mm 3 m/S 750 mmHg 81%
    08:00 +22°C° 0.1 mm 4 m/S 750 mmHg 78%
    09:00 +22°C° 0.5 mm 4 m/S 750 mmHg 78%
    10:00 +21°C° 0.5 mm 4 m/S 750 mmHg 78%
    11:00 +21°C° 0.5 mm 4 m/S 750 mmHg 77%
    12:00 +21°C° 0.5 mm 4 m/S 750 mmHg 79%
    13:00 +20°C° 0.5 mm 3 m/S 750 mmHg 80%
    14:00 +20°C° 0.5 mm 2 m/S 750 mmHg 82%
    15:00 +19°C° 0.7 mm 2 m/S 750 mmHg 83%
    16:00 +19°C° 0.7 mm 2 m/S 750 mmHg 84%
    17:00 +19°C° 0.7 mm 2 m/S 750 mmHg 85%
    18:00 +18°C° 0.7 mm 2 m/S 750 mmHg 87%
    19:00 +19°C° 0.7 mm 1 m/S 750 mmHg 90%
    20:00 +19°C° 0.7 mm 1 m/S 750 mmHg 92%
    21:00 +19°C° 0.2 mm 1 m/S 750 mmHg 92%
    22:00 +19°C° 0.2 mm 1 m/S 750 mmHg 92%
    23:00 +19°C° 0.2 mm 1 m/S 750 mmHg 92%

    24 Juli, Mittwoch

    Zeit Temperatur Niederschläge Wind Luftdruck Luftfeuchtigkeit
    00:00 +18°C° 0.1 mm 1 m/S 750 mmHg 92%
    01:00 +18°C° 0.1 mm 1 m/S 750 mmHg 92%
    02:00 +18°C° 0.1 mm 1 m/S 749 mmHg 92%
    03:00 +17°C° 0 mm 2 m/S 749 mmHg 92%
    04:00 +17°C° 0 mm 2 m/S 749 mmHg 93%
    05:00 +17°C° 0 mm 3 m/S 749 mmHg 93%
    06:00 +18°C° 0.2 mm 3 m/S 749 mmHg 90%
    07:00 +18°C° 0.2 mm 3 m/S 749 mmHg 88%
    08:00 +19°C° 0.2 mm 4 m/S 749 mmHg 85%
    09:00 +19°C° 0.2 mm 4 m/S 749 mmHg 83%
    10:00 +19°C° 0.2 mm 5 m/S 749 mmHg 81%
    11:00 +19°C° 0.2 mm 5 m/S 749 mmHg 79%
    12:00 +20°C° 0.1 mm 5 m/S 748 mmHg 77%
    13:00 +20°C° 0.1 mm 5 m/S 748 mmHg 75%
    14:00 +20°C° 0.1 mm 5 m/S 748 mmHg 72%
    15:00 +20°C° 0.1 mm 5 m/S 748 mmHg 74%
    16:00 +20°C° 0.1 mm 4 m/S 748 mmHg 76%
    17:00 +20°C° 0.1 mm 4 m/S 748 mmHg 77%
    18:00 +19°C° 0.5 mm 4 m/S 748 mmHg 81%
    19:00 +19°C° 0.5 mm 4 m/S 748 mmHg 84%
    20:00 +18°C° 0.5 mm 4 m/S 748 mmHg 87%
    21:00 +18°C° 1.1 mm 4 m/S 748 mmHg 90%
    22:00 +18°C° 1.1 mm 4 m/S 748 mmHg 92%
    23:00 +18°C° 1.1 mm 4 m/S 748 mmHg 95%

    25 Juli, Donnerstag

    Zeit Temperatur Niederschläge Wind Luftdruck Luftfeuchtigkeit
    00:00 +18°C° 0.6 mm 4 m/S 748 mmHg 95%
    01:00 +18°C° 0.6 mm 4 m/S 748 mmHg 95%
    02:00 +18°C° 0.6 mm 4 m/S 748 mmHg 95%
    03:00 +18°C° 0.2 mm 4 m/S 748 mmHg 95%
    04:00 +18°C° 0.2 mm 4 m/S 748 mmHg 95%
    05:00 +18°C° 0.2 mm 4 m/S 748 mmHg 95%
    06:00 +19°C° 0 mm 4 m/S 748 mmHg 92%
    07:00 +19°C° 0 mm 4 m/S 748 mmHg 90%
    08:00 +20°C° 0 mm 4 m/S 749 mmHg 88%
    09:00 +20°C° 0.1 mm 4 m/S 749 mmHg 85%
    10:00 +21°C° 0.1 mm 5 m/S 749 mmHg 82%
    11:00 +22°C° 0.1 mm 5 m/S 749 mmHg 79%
    12:00 +22°C° 0.2 mm 5 m/S 749 mmHg 77%
    13:00 +23°C° 0.2 mm 5 m/S 749 mmHg 75%
    14:00 +23°C° 0.2 mm 5 m/S 749 mmHg 73%
    15:00 +23°C° 0.8 mm 4 m/S 749 mmHg 74%
    16:00 +23°C° 0.8 mm 4 m/S 749 mmHg 76%
    17:00 +23°C° 0.8 mm 4 m/S 749 mmHg 77%
    18:00 +22°C° 0.1 mm 4 m/S 749 mmHg 81%
    19:00 +21°C° 0.1 mm 3 m/S 749 mmHg 85%
    20:00 +20°C° 0.1 mm 3 m/S 750 mmHg 89%
    21:00 +20°C° 0 mm 3 m/S 750 mmHg 90%
    22:00 +19°C° 0 mm 3 m/S 750 mmHg 91%
    23:00 +19°C° 0 mm 3 m/S 750 mmHg 93%

    26 Juli, Freitag

    Zeit Temperatur Niederschläge Wind Luftdruck Luftfeuchtigkeit
    00:00 +18°C° 0 mm 3 m/S 750 mmHg 93%
    01:00 +18°C° 0 mm 3 m/S 750 mmHg 93%
    02:00 +18°C° 0 mm 3 m/S 750 mmHg 93%
    03:00 +18°C° 0 mm 4 m/S 750 mmHg 92%
    04:00 +18°C° 0 mm 4 m/S 750 mmHg 92%
    05:00 +17°C° 0 mm 4 m/S 750 mmHg 91%
    06:00 +19°C° 0 mm 4 m/S 750 mmHg 83%
    07:00 +21°C° 0 mm 4 m/S 750 mmHg 74%
    08:00 +23°C° 0 mm 5 m/S 750 mmHg 66%
    09:00 +26°C° 0 mm 5 m/S 750 mmHg 60%
    10:00 +27°C° 0 mm 5 m/S 750 mmHg 54%
    11:00 +28°C° 0 mm 5 m/S 750 mmHg 47%
    12:00 +29°C° 0 mm 5 m/S 750 mmHg 47%
    13:00 +30°C° 0 mm 5 m/S 749 mmHg 46%
    14:00 +30°C° 0 mm 5 m/S 749 mmHg 45%
    15:00 +30°C° 0 mm 5 m/S 749 mmHg 47%
    16:00 +29°C° 0 mm 5 m/S 748 mmHg 48%
    17:00 +29°C° 0 mm 5 m/S 748 mmHg 50%
    18:00 +27°C° 0 mm 4 m/S 748 mmHg 57%
    19:00 +26°C° 0 mm 3 m/S 748 mmHg 63%
    20:00 +24°C° 0 mm 2 m/S 748 mmHg 70%
    21:00 +23°C° 0.1 mm 2 m/S 748 mmHg 72%
    22:00 +23°C° 0.1 mm 2 m/S 747 mmHg 74%
    23:00 +23°C° 0.1 mm 1 m/S 747 mmHg 76%
    Mehr zeigen